Location: D�rnast
(49.6426°N, 11.9755°E)
Time: 20:48:34
(UTC+00:00)

Aureole 3 Rocket - Pass Details

Date: 24 January 2021
Orbit: 398 x 1740 km, 82.5° (Epoch: 02 March)

Event Time Altitude Azimuth Distance (km) Brightness Sun altitude
Rises 17:37:58 0° 354° (N) 2,326 6.0 -16.6°
Reaches altitude 10° 17:39:56 10° 359° (N) 1,471 4.9 -16.9°
Maximum altitude 17:42:56 53° 78° (ENE) 536 2.3 -17.3°
Drops below altitude 10° 17:46:22 10° 157° (SSE) 1,671 5.1 -17.9°
Sets 17:48:43 0° 162° (SSE) 2,694 6.2 -18.3°
